[Date Prev][Date Next][Thread Prev][Thread Next] - [Date Index][Thread Index][Author Index]

2 Line ISS Keps 6-25



ISS
1 25544U 98067A   05176.44810068  .00008014  00000-0  61658-4 0  7700
2 25544 051.6444 218.5533 0004166 306.1354 187.6938 15.73091997376988
----
Via the sarex mailing list at AMSAT.ORG courtesy of AMSAT-NA.
To unsubscribe, send "unsubscribe sarex" to Majordomo@amsat.org



AMSAT Top AMSAT Home